Simultaneous Nadir Overpasses (SNOs) Predictions

Prediction of SNOs between AQUA and NOAA-19 Satellite Orbit:

Table of predicted SNOs for the next 14.0 days since TLE Epoch: 2/24/2012
Index Date (AQUA) Time (AQUA) AQUA Lat,Lon Date (NOAA-19) Time (NOAA-19) NOAA-19 Lat,Lon Distance(km) Time Diff (sec)
1 02/25/2012 00:29:53 53.91, 27.75 02/25/2012 00:29:56 53.92, 27.77 1.63 3
2 02/27/2012 04:26:57 -46.23, 145.74 02/27/2012 04:26:02 -46.24, 145.78 3.51 55
3 02/27/2012 05:13:16 57.12, -41.62 02/27/2012 05:13:48 57.13, -41.60 1.41 32
4 02/29/2012 09:10:13 -49.87, 76.11 02/29/2012 09:09:47 -49.87, 76.13 1.03 26
5 02/29/2012 09:56:56 59.30,-111.37 02/29/2012 09:57:58 59.30,-111.38 0.55 62
6 03/02/2012 13:53:25 -53.70, 6.78 03/02/2012 13:53:28 -53.70, 6.79 0.66 3
7 03/02/2012 14:31:09 79.34, -63.75 03/02/2012 14:32:21 78.72, -66.11 85.27 72
8 03/04/2012 17:50:22 46.04, 124.84 03/04/2012 17:49:25 46.01, 124.86 4.03 57
9 03/04/2012 18:36:57 -56.32, -62.92 03/04/2012 18:37:30 -56.32, -62.95 1.53 33
10 03/06/2012 22:33:51 48.86, 54.87 03/06/2012 22:33:24 48.86, 54.85 1.40 27
11 03/06/2012 23:20:24 -59.21,-132.28 03/06/2012 23:21:27 -59.20,-132.31 1.71 63
12 03/09/2012 03:16:40 54.02, -13.89 03/09/2012 03:16:42 54.02, -13.87 1.32 2




NCC Satellite Simultaneous Nadir Overpasses (SNOs) Prediction Service
